DW3588 Weather Reports


Display with metric or nautical units.
time (UTC)temp
F
wind
direction
speed
MPH
gust
MPH
rain 1hr
in
rain 24hr
in
rain mn
in
humidity
%
barometer
mb
20260507051821 64 262 5.0 9.0 0.00 0.00 0.00 70 1017.4
20260507051539 64 273 1.0 6.0 0.00 0.00 0.00 72 1017.4
20260507051421 64 278 3.0 8.0 0.00 0.00 0.00 71 1017.3
20260507050316 64 211 0.0 2.0 0.00 0.00 0.00 72 1017.5
20260507050032 64 211 1.0 2.0 0.00 0.00 0.00 72 1017.5
20260507045313 64 211 1.0 3.0 0.00 0.00 0.00 71 1017.5
20260507045032 65 211 2.0 4.0 0.00 0.00 0.00 71 1017.3
20260507044310 65 211 2.0 4.0 0.00 0.00 0.00 71 1017.5
20260507043808 65 205 1.0 3.0 0.00 0.00 0.00 71 1017.5
20260507043526 65 200 0.0 2.0 0.00 0.00 0.00 70 1017.4
20260507042806 66 200 1.0 3.0 0.00 0.00 0.00 69 1017.4
20260507042529 66 200 1.0 3.0 0.00 0.00 0.00 69 1017.3
20260507041802 67 200 2.0 4.0 0.00 0.00 0.00 67 1017.2
20260507041300 67 201 2.0 4.0 0.00 0.00 0.00 67 1017.1
20260507040759 67 225 2.0 4.0 0.00 0.00 0.00 66 1017.2
20260507040519 67 270 1.0 3.0 0.00 0.00 0.00 66 1017.1
20260507035758 68 298 1.0 3.0 0.00 0.00 0.00 66 1017.1
20260507035256 68 299 1.0 3.0 0.00 0.00 0.00 66 1017.0
20260507034756 68 300 1.0 3.0 0.00 0.00 0.00 66 1017.0
20260507034252 68 310 1.0 3.0 0.00 0.00 0.00 66 1017.0
20260507033750 68 311 1.0 3.0 0.00 0.00 0.00 65 1017.0
20260507033249 69 311 2.0 5.0 0.00 0.00 0.00 65 1016.9
20260507032746 69 311 3.0 6.0 0.00 0.00 0.00 64 1016.7
20260507032246 69 296 3.0 6.0 0.00 0.00 0.00 63 1016.7
20260507031746 69 316 3.0 10.0 0.00 0.00 0.00 63 1016.6
20260507031241 70 350 5.0 10.0 0.00 0.00 0.00 62 1016.6
20260507030742 70 302 5.0 11.0 0.00 0.00 0.00 62 1016.5
20260507030239 71 313 5.0 11.0 0.00 0.00 0.00 61 1016.5
20260507025739 71 325 6.0 11.0 0.00 0.00 0.00 61 1016.5
20260507025238 71 300 6.0 11.0 0.00 0.00 0.00 61 1016.4
20260507024738 72 306 5.0 10.0 0.00 0.00 0.00 60 1016.3
20260507024236 72 313 6.0 13.0 0.00 0.00 0.00 60 1016.3
20260507023736 72 304 6.0 13.0 0.00 0.00 0.00 60 1016.3
20260507023236 73 299 5.0 11.0 0.00 0.00 0.00 60 1016.2
20260507022735 73 310 6.0 11.0 0.00 0.00 0.00 59 1016.1
20260507022236 74 317 6.0 12.0 0.00 0.00 0.00 59 1016.1
20260507021736 74 313 6.0 12.0 0.00 0.00 0.00 58 1016.0
20260507021235 74 338 6.0 12.0 0.00 0.00 0.00 57 1016.0
20260507020734 74 321 6.0 11.0 0.00 0.00 0.00 57 1016.0
20260507020229 75 301 6.0 12.0 0.00 0.00 0.00 57 1016.0
20260507015729 75 298 5.0 12.0 0.00 0.00 0.00 56 1016.0
20260507015229 75 324 5.0 11.0 0.00 0.00 0.00 56 1016.0
20260507014730 75 323 6.0 13.0 0.00 0.00 0.00 56 1015.9
20260507014226 76 312 6.0 13.0 0.00 0.00 0.00 55 1016.0
20260507013723 76 301 6.0 14.0 0.00 0.00 0.00 54 1016.0
20260507013222 76 330 8.0 14.0 0.00 0.00 0.00 54 1016.0
20260507013202 76 338 8.0 16.0 0.00 0.00 0.00 54 1016.0
20260507012220 76 329 7.0 16.0 0.00 0.00 0.00 54 1016.0
20260507011720 77 333 6.0 14.0 0.00 0.00 0.00 54 1016.0
20260507011436 77 355 6.0 12.0 0.00 0.00 0.00 54 1016.1
20260507010925 77 321 6.0 14.0 0.00 0.00 0.00 53 1016.1
20260507010807 77 0 6.0 12.0 0.00 0.00 0.00 53 1016.0
20260507005713 77 0 6.0 14.0 0.00 0.00 0.00 53 1016.0
20260507005214 77 269 6.0 11.0 0.00 0.00 0.00 52 1016.1
20260507004714 77 9 5.0 11.0 0.00 0.00 0.00 52 1016.1
20260507004214 77 331 5.0 13.0 0.00 0.00 0.00 52 1016.1
20260507003713 77 355 6.0 13.0 0.00 0.00 0.00 52 1016.2
20260507003421 78 339 6.0 13.0 0.00 0.00 0.00 51 1016.2
20260507003301 78 304 6.0 13.0 0.00 0.00 0.00 51 1016.2
20260507002159 78 334 6.0 12.0 0.00 0.00 0.00 50 1016.2
20260507001657 78 340 5.0 12.0 0.00 0.00 0.00 50 1016.2
20260507001645 77 355 4.0 10.0 0.00 0.00 0.00 51 1016.2
20260507000658 78 339 4.0 10.0 0.00 0.00 0.00 51 1016.2
20260507000158 78 28 4.0 10.0 0.00 0.00 0.00 50 1016.2
20260506235655 78 299 4.0 10.0 0.00 0.00 0.00 50 1016.3
20260506235155 78 344 4.0 9.0 0.00 0.00 0.00 51 1016.3
20260506234654 78 287 5.0 13.0 0.00 0.00 0.00 50 1016.4
20260506234419 78 326 4.0 13.0 0.00 0.00 0.00 51 1016.4
20260506233653 78 355 4.0 11.0 0.00 0.00 0.00 51 1016.4
20260506233151 78 334 5.0 13.0 0.00 0.00 0.00 51 1016.4
20260506232650 78 311 5.0 13.0 0.00 0.00 0.00 51 1016.5
20260506232147 78 300 6.0 12.0 0.00 0.00 0.00 50 1016.5
20260506231647 78 344 6.0 13.0 0.00 0.00 0.00 50 1016.5
20260506231147 78 5 5.0 13.0 0.00 0.00 0.00 50 1016.6
20260506230647 78 351 5.0 13.0 0.00 0.00 0.00 49 1016.7
20260506230147 79 309 6.0 12.0 0.00 0.00 0.00 49 1016.8
20260506225646 79 325 5.0 12.0 0.00 0.00 0.00 50 1016.8
20260506225147 78 5 4.0 11.0 0.00 0.00 0.00 50 1016.9
20260506224648 78 53 3.0 10.0 0.00 0.00 0.00 49 1016.9
20260506224146 79 308 3.0 9.0 0.00 0.00 0.00 48 1017.0
20260506223646 80 292 4.0 11.0 0.00 0.00 0.00 47 1017.1
20260506223146 78 277 4.0 11.0 0.00 0.00 0.00 49 1017.1
20260506222647 78 0 4.0 11.0 0.00 0.00 0.00 49 1017.3
20260506222404 78 348 4.0 11.0 0.00 0.00 0.00 49 1017.3
20260506221648 79 348 4.0 13.0 0.00 0.00 0.00 49 1017.3
20260506221148 79 347 3.0 13.0 0.00 0.00 0.00 48 1017.4
20260506220647 78 121 5.0 11.0 0.00 0.00 0.00 49 1017.5
20260506220146 78 19 5.0 11.0 0.00 0.00 0.00 48 1017.6
20260506215645 78 315 4.0 10.0 0.00 0.00 0.00 49 1017.7
20260506215147 78 350 5.0 11.0 0.00 0.00 0.00 49 1017.7
20260506214643 78 304 5.0 11.0 0.00 0.00 0.00 48 1017.8
20260506214143 78 31 4.0 11.0 0.00 0.00 0.00 49 1017.8
20260506213641 77 14 4.0 9.0 0.00 0.00 0.00 49 1017.9
20260506213405 77 333 4.0 10.0 0.00 0.00 0.00 49 1017.9
20260506212641 77 44 4.0 10.0 0.00 0.00 0.00 47 1018.0
20260506212139 78 319 3.0 6.0 0.00 0.00 0.00 46 1018.0
20260506211638 78 84 3.0 8.0 0.00 0.00 0.00 47 1018.0
20260506211139 78 94 3.0 8.0 0.00 0.00 0.00 47 1018.1
20260506210636 77 78 3.0 8.0 0.00 0.00 0.00 47 1018.2
20260506210137 77 344 2.0 5.0 0.00 0.00 0.00 47 1018.2
20260506205638 77 298 3.0 11.0 0.00 0.00 0.00 47 1018.2
20260506205137 78 302 5.0 11.0 0.00 0.00 0.00 46 1018.3
20260506204859 77 36 3.0 9.0 0.00 0.00 0.00 47 1018.3
20260506204136 77 13 3.0 8.0 0.00 0.00 0.00 47 1018.4
20260506203637 78 275 5.0 11.0 0.00 0.00 0.00 47 1018.4
20260506203137 77 271 5.0 11.0 0.00 0.00 0.00 47 1018.5
20260506202637 77 311 5.0 11.0 0.00 0.00 0.00 47 1018.6
20260506202135 77 21 3.0 10.0 0.00 0.00 0.00 48 1018.7
20260506201634 76 253 3.0 10.0 0.00 0.00 0.00 48 1018.7
20260506201136 77 309 4.0 11.0 0.00 0.00 0.00 48 1018.9
20260506200636 76 355 4.0 11.0 0.00 0.00 0.00 50 1019.0
20260506200134 75 339 4.0 10.0 0.00 0.00 0.00 49 1019.0
20260506195855 76 11 3.0 10.0 0.00 0.00 0.00 48 1019.0
20260506195137 75 83 4.0 9.0 0.00 0.00 0.00 50 1019.1
20260506194635 76 15 4.0 9.0 0.00 0.00 0.00 49 1019.1
20260506194135 76 59 3.0 6.0 0.00 0.00 0.00 50 1019.1
20260506193635 75 350 2.0 8.0 0.00 0.00 0.00 51 1019.1
20260506193356 76 92 2.0 8.0 0.00 0.00 0.00 49 1019.2
20260506192855 76 219 3.0 8.0 0.00 0.00 0.00 51 1019.2
20260506192135 75 249 4.0 8.0 0.00 0.00 0.00 51 1019.2
20260506191632 75 345 3.0 8.0 0.00 0.00 0.00 52 1019.3
20260506191132 74 17 3.0 8.0 0.00 0.00 0.00 51 1019.3
20260506190633 73 42 3.0 8.0 0.00 0.00 0.00 50 1019.4
20260506190133 73 73 3.0 7.0 0.00 0.00 0.00 52 1019.4
20260506185632 73 62 3.0 8.0 0.00 0.00 0.00 53 1019.4
20260506185616 74 113 2.0 8.0 0.00 0.00 0.00 51 1019.4
20260506184631 74 355 3.0 7.0 0.00 0.00 0.00 52 1019.5
20260506184130 74 103 3.0 8.0 0.00 0.00 0.00 51 1019.6
20260506183631 75 346 3.0 8.0 0.00 0.00 0.00 51 1019.6
20260506183352 73 113 2.0 8.0 0.00 0.00 0.00 54 1019.6
20260506182631 73 55 3.0 8.0 0.00 0.00 0.00 54 1019.6
20260506182130 72 347 3.0 8.0 0.00 0.00 0.00 55 1019.7
20260506181625 72 30 4.0 8.0 0.00 0.00 0.00 54 1019.7
20260506181126 72 82 3.0 7.0 0.00 0.00 0.00 55 1019.7
20260506180621 72 5 3.0 7.0 0.00 0.00 0.00 57 1019.7
20260506180121 72 22 3.0 5.0 0.00 0.00 0.00 55 1019.7
20260506175621 72 325 2.0 6.0 0.00 0.00 0.00 56 1019.7
20260506175121 71 355 2.0 6.0 0.00 0.00 0.00 57 1019.7
20260506175112 71 50 2.0 6.0 0.00 0.00 0.00 59 1019.7
20260506174121 70 60 3.0 7.0 0.00 0.00 0.00 59 1019.7
20260506173619 69 48 3.0 7.0 0.00 0.00 0.00 60 1019.7
20260506173117 68 31 2.0 6.0 0.00 0.00 0.00 61 1019.7
20260506172617 69 21 2.0 9.0 0.00 0.00 0.00 62 1019.7
20260506172115 68 332 2.0 9.0 0.00 0.00 0.00 61 1019.8
20260506171836 68 199 1.0 5.0 0.00 0.00 0.00 62 1019.8
20260506171335 67 318 2.0 5.0 0.00 0.00 0.00 62 1019.8
20260506170829 67 343 2.0 5.0 0.00 0.00 0.00 63 1019.8
20260506170108 67 5 2.0 5.0 0.00 0.00 0.00 62 1019.8
20260506165605 67 355 2.0 6.0 0.00 0.00 0.00 63 1019.7
20260506165327 66 16 1.0 6.0 0.00 0.00 0.00 63 1019.7
20260506164807 66 328 2.0 4.0 0.00 0.00 0.00 65 1019.8
20260506164304 65 330 3.0 5.0 0.00 0.00 0.00 65 1019.8
20260506163533 65 313 2.0 10.0 0.00 0.00 0.00 66 1019.8
20260506163033 65 311 1.0 10.0 0.00 0.00 0.00 66 1019.8
20260506162533 64 233 1.0 4.0 0.00 0.00 0.00 66 1019.8
20260506162032 64 233 1.0 4.0 0.00 0.00 0.00 68 1019.8
20260506161752 62 311 1.0 5.0 0.00 0.00 0.00 70 1019.8
20260506161030 62 311 2.0 5.0 0.00 0.00 0.00 71 1019.8
20260506160527 62 286 1.0 3.0 0.00 0.00 0.00 72 1019.8
20260506160025 61 240 1.0 3.0 0.00 0.00 0.00 73 1019.8
20260506155522 61 221 1.0 3.0 0.00 0.00 0.00 74 1019.9
20260506155021 60 221 1.0 3.0 0.00 0.00 0.00 74 1019.9
20260506154518 60 213 1.0 4.0 0.00 0.00 0.00 75 1019.9
20260506154016 60 211 1.0 4.0 0.00 0.00 0.00 76 1019.9
20260506153515 60 211 1.0 2.0 0.00 0.00 0.00 76 1019.9
20260506153013 59 211 1.0 3.0 0.00 0.00 0.00 77 1020.0
20260506152513 59 211 1.0 3.0 0.00 0.00 0.00 77 1020.0
20260506152012 59 211 1.0 2.0 0.00 0.00 0.00 78 1020.0
20260506151511 58 211 1.0 3.0 0.00 0.00 0.00 78 1020.0
20260506151009 58 211 1.0 3.0 0.00 0.00 0.00 78 1019.9
20260506150507 58 212 1.0 4.0 0.00 0.00 0.00 78 1019.9
20260506150005 58 212 1.0 4.0 0.00 0.00 0.00 79 1020.0
20260506145504 58 215 2.0 3.0 0.00 0.00 0.00 79 1019.9
20260506145002 58 217 1.0 3.0 0.00 0.00 0.00 79 1019.9
20260506144501 58 219 1.0 3.0 0.00 0.00 0.00 79 1019.9
20260506144001 57 219 1.0 3.0 0.00 0.00 0.00 79 1019.8
20260506143459 57 220 1.0 4.0 0.00 0.00 0.00 80 1019.8
20260506142957 57 221 1.0 4.0 0.00 0.00 0.00 79 1019.8
20260506142938 57 225 1.0 4.0 0.00 0.00 0.00 79 1019.7
20260506141955 57 225 2.0 5.0 0.00 0.00 0.00 79 1019.7
20260506141454 57 223 2.0 5.0 0.00 0.00 0.00 79 1019.6
20260506140941 56 223 2.0 6.0 0.00 0.00 0.00 79 1019.5
20260506140659 56 229 2.0 6.0 0.00 0.00 0.00 79 1019.5
20260506135938 56 230 2.0 4.0 0.00 0.00 0.00 79 1019.4
20260506135438 56 240 2.0 5.0 0.00 0.00 0.00 79 1019.5
20260506134937 56 240 2.0 5.0 0.00 0.00 0.00 79 1019.4
20260506134437 56 257 2.0 4.0 0.00 0.00 0.00 79 1019.4
20260506133936 56 238 2.0 5.0 0.00 0.00 0.00 79 1019.4
20260506133435 56 235 3.0 5.0 0.00 0.00 0.00 79 1019.3
20260506132937 56 242 2.0 5.0 0.00 0.00 0.00 80 1019.3
20260506132658 56 244 2.0 5.0 0.00 0.00 0.00 79 1019.2
20260506131933 56 248 2.0 4.0 0.00 0.00 0.00 80 1019.1
20260506131434 56 254 2.0 4.0 0.00 0.00 0.00 80 1019.1
20260506130933 56 256 1.0 4.0 0.00 0.00 0.00 80 1019.1
20260506130432 56 306 0.0 2.0 0.00 0.00 0.00 80 1019.0
20260506125930 56 307 0.0 2.0 0.00 0.00 0.00 80 1019.0
20260506125427 56 307 0.0 2.0 0.00 0.00 0.00 80 1019.0
20260506124927 56 307 1.0 3.0 0.00 0.00 0.00 80 1019.0
20260506124646 56 308 0.0 3.0 0.00 0.00 0.00 80 1019.0
20260506123923 56 308 0.0 3.0 0.00 0.00 0.00 80 1019.0
20260506123421 56 308 0.0 0.0 0.00 0.00 0.00 80 1018.9
20260506122922 56 308 0.0 0.0 0.00 0.00 0.00 80 1018.9
20260506122419 56 308 0.0 1.0 0.00 0.00 0.00 80 1018.9
20260506121918 56 308 0.0 1.0 0.00 0.00 0.00 80 1018.9
20260506121418 56 308 0.0 1.0 0.00 0.00 0.00 80 1018.9
20260506120918 56 308 0.0 0.0 0.00 0.00 0.00 80 1018.9
20260506120417 56 308 0.0 1.0 0.00 0.00 0.00 81 1018.9
20260506120136 56 308 0.0 1.0 0.00 0.00 0.00 81 1018.8
20260506115413 56 308 0.0 1.0 0.00 0.00 0.00 81 1018.8
20260506115136 56 308 0.0 1.0 0.00 0.00 0.00 81 1018.7
20260506114410 56 308 0.0 2.0 0.00 0.00 0.00 81 1018.7
20260506113908 56 308 0.0 2.0 0.00 0.00 0.00 81 1018.7
20260506113406 56 308 0.0 1.0 0.00 0.00 0.00 81 1018.6
20260506112907 56 308 0.0 1.0 0.00 0.00 0.00 81 1018.5
20260506112406 56 308 0.0 1.0 0.00 0.00 0.00 81 1018.5
20260506111905 56 308 0.0 1.0 0.00 0.00 0.00 81 1018.4
20260506111404 56 308 0.0 1.0 0.00 0.00 0.00 81 1018.4
20260506110903 56 308 0.0 0.0 0.00 0.00 0.00 81 1018.3
20260506110632 56 308 0.0 1.0 0.00 0.00 0.00 81 1018.3
20260506105859 56 308 0.0 2.0 0.00 0.00 0.00 81 1018.2
20260506105400 56 308 0.0 2.0 0.00 0.01 0.00 81 1018.3
20260506104859 56 308 0.0 1.0 0.00 0.01 0.00 81 1018.2
20260506104353 56 308 0.0 2.0 0.00 0.01 0.00 81 1018.2
20260506103850 56 309 1.0 2.0 0.00 0.01 0.00 81 1018.2
20260506103350 56 309 1.0 2.0 0.00 0.01 0.00 81 1018.1
20260506102850 56 315 0.0 2.0 0.00 0.01 0.00 81 1018.2
20260506102350 56 315 0.0 2.0 0.00 0.01 0.00 81 1018.1
20260506101849 56 316 0.0 1.0 0.00 0.02 0.00 81 1018.1
20260506101348 56 315 0.0 2.0 0.00 0.02 0.00 81 1018.0
20260506100847 56 316 1.0 2.0 0.00 0.02 0.00 81 1018.1
20260506100345 56 316 1.0 2.0 0.00 0.02 0.00 81 1018.1
20260506095846 56 329 0.0 2.0 0.00 0.02 0.00 81 1018.0
20260506095346 56 330 0.0 1.0 0.00 0.02 0.00 81 1018.0
20260506094840 56 330 0.0 1.0 0.00 0.03 0.00 81 1018.0
20260506094555 56 330 0.0 1.0 0.00 0.03 0.00 81 1017.9
20260506093836 56 330 0.0 2.0 0.00 0.04 0.00 81 1018.0
20260506093336 56 330 0.0 2.0 0.00 0.05 0.00 81 1017.9
20260506092834 56 330 0.0 0.0 0.00 0.05 0.00 81 1017.9
20260506092332 56 330 0.0 1.0 0.00 0.05 0.00 81 1017.9
20260506091832 56 330 0.0 1.0 0.00 0.05 0.00 81 1018.0
20260506091822 56 330 0.0 1.0 0.00 0.05 0.00 81 1017.9
20260506090829 56 330 0.0 1.0 0.00 0.05 0.00 81 1018.0
20260506090329 56 330 0.0 0.0 0.00 0.06 0.00 81 1018.1
20260506085829 56 330 0.0 1.0 0.00 0.06 0.00 81 1018.0
20260506085329 56 330 0.0 2.0 0.00 0.06 0.00 81 1018.1
20260506084825 56 330 0.0 2.0 0.00 0.06 0.00 81 1018.1
20260506084549 56 330 0.0 2.0 0.00 0.06 0.00 80 1018.1
20260506083823 55 330 0.0 2.0 0.00 0.06 0.00 80 1018.1
20260506083322 55 330 0.0 1.0 0.00 0.06 0.00 80 1018.1
20260506083045 55 330 1.0 3.0 0.00 0.06 0.00 80 1018.1
20260506082320 55 330 1.0 3.0 0.00 0.06 0.00 80 1018.0
20260506081820 55 329 0.0 2.0 0.00 0.06 0.00 80 1018.0
20260506081316 55 329 1.0 4.0 0.00 0.06 0.00 80 1017.9
20260506080814 55 329 1.0 4.0 0.00 0.06 0.00 79 1017.9
20260506080321 55 272 1.0 3.0 0.00 0.06 0.00 79 1017.9
20260506073302 56 269 0.0 2.0 0.00 0.06 0.00 77 1017.6
20260506072800 56 269 0.0 2.0 0.00 0.06 0.00 77 1017.7
20260506072523 56 274 1.0 4.0 0.00 0.06 0.00 77 1017.6
20260506071756 56 274 1.0 4.0 0.00 0.06 0.00 77 1017.6
20260506071529 56 275 1.0 4.0 0.00 0.06 0.00 77 1017.6
20260506070755 56 275 1.0 4.0 0.00 0.06 0.00 77 1017.5
20260506070255 56 285 1.0 3.0 0.00 0.06 0.00 77 1017.5
20260506062254 57 261 1.0 3.0 0.00 0.07 0.07 75 1017.2
20260506061753 57 259 1.0 3.0 0.00 0.07 0.07 75 1017.2
20260506061252 57 259 1.0 3.0 0.00 0.07 0.07 75 1017.1
20260506060751 58 258 1.0 3.0 0.00 0.07 0.07 74 1017.1
20260506060252 58 258 1.0 3.0 0.00 0.07 0.07 74 1017.0